Home   Weather   Nizhny Novgorod   Past weeks

Flag for Russia Past Weather in Nizhny Novgorod, Russia — Yesterday and Last 2 Weeks

Now
37 °F

Sunny.


Feels Like: 35 °F
Forecast: 51 / 58 °F
Wind: 3 mph from South

Location: Nizhny Novgorod/Strigino

Current Time: Apr 26, 2017 at 7:02:07 am

Latest Report: Apr 26, 2017 at 6:30 am


Visibility: 10 mi

Pressure: 30.12 "Hg

Humidity: 70%

Dew Point: 28 °F

Location of Nizhny NovgorodLocation

Past Weather in Nizhny Novgorod — Graph

°F

Nizhny Novgorod Temperature Yesterday

Maximum temperature yesterday: 46 °F (at 11:30 am)
Minimum temperature yesterday: 32 °F (at 9:30 pm)
Average temperature yesterday: 40 °F

High & Low Weather Summary for the Past Weeks

 TemperatureHumidityPressure
High63 °F (Apr 11, 2:00 pm)100% (Apr 14, 7:00 pm)30.30 "Hg (Apr 14, 7:00 pm)
Low25 °F (Apr 19, 3:00 am)31% (Apr 16, 4:00 pm)29.36 "Hg (Apr 14, 10:00 pm)
Average39 °F67%29.74 "Hg
* Reported Apr 11 5:00 am — Apr 26 5:30 am, Nizhny Novgorod, Weather by CustomWeather, © 2017

Note: Actual official high and low records may vary slightly from our data, if they occured in-between our weather recording intervals... More about our weather records

Advertising

Nizhny Novgorod Weather History for the Previous 24 Hours

Scroll right to see more
 ConditionsComfort  
Time TempWeatherWind HumidityBarometerVisibility
5:30 am
Wed, Apr 26
30 °FSunny.3 mph93%30.12 "Hg10 mi
5:00 am28 °FSunny.No wind93%30.12 "Hg10 mi
4:30 am27 °FFog.No wind93%30.12 "HgN/A
4:00 am27 °FFog.No wind100%30.12 "HgN/A
3:30 am28 °FFog.No wind93%30.12 "HgN/A
3:00 am28 °FFog.No wind93%30.12 "HgN/A
2:30 am28 °FFog.1 mph100%30.09 "HgN/A
2:00 am28 °FFog.1 mph100%30.09 "HgN/A
1:30 am30 °FFog.No wind93%30.09 "HgN/A
1:00 am30 °FFog.1 mph93%30.09 "HgN/A
12:30 am30 °FFog.1 mph93%30.09 "Hg6 mi
12:00 am30 °FFog.No wind100%30.09 "HgN/A
11:30 pm
Tue, Apr 25
32 °FFog.1 mph93%30.09 "HgN/A
11:00 pm32 °FClear.1 mph93%30.09 "Hg6 mi
10:30 pm32 °FClear.1 mph93%30.07 "Hg4 mi
10:00 pm32 °FClear.3 mph93%30.07 "Hg6 mi
9:30 pm32 °FClear.No wind93%30.07 "Hg10 mi
9:00 pm34 °FClear.1 mph87%30.07 "Hg10 mi
8:30 pm36 °FClear.1 mph87%30.07 "Hg10 mi
8:00 pm36 °FClear.No wind87%30.04 "Hg10 mi
7:30 pm39 °FPassing clouds.1 mph75%30.04 "HgN/A
7:00 pm43 °FPassing clouds.No wind66%30.01 "HgN/A
6:30 pm46 °FPassing clouds.3 mph57%30.01 "HgN/A
5:30 pm46 °FPassing clouds.6 mph57%30.01 "HgN/A
5:00 pm46 °FScattered clouds.6 mph57%30.01 "HgN/A
4:30 pm45 °FPartly sunny.8 mph71%29.98 "HgN/A
4:00 pm45 °FPartly sunny.8 mph71%29.98 "HgN/A
3:30 pm45 °FPartly sunny.8 mph66%29.95 "HgN/A
2:30 pm46 °FPartly sunny.6 mph62%29.95 "HgN/A
2:00 pm45 °FPartly sunny.8 mph66%29.95 "HgN/A
1:30 pm46 °FPartly sunny.10 mph62%29.92 "HgN/A
1:00 pm45 °FSprinkles. Partly sunny.8 mph71%29.92 "Hg6 mi
12:30 pm46 °FPartly sunny.8 mph57%29.89 "HgN/A
12:00 pm46 °FPartly sunny.8 mph57%29.89 "HgN/A
11:30 am46 °FPartly sunny.8 mph57%29.89 "HgN/A
11:00 am45 °FPartly sunny.8 mph66%29.89 "HgN/A
10:00 am45 °FPartly sunny.6 mph57%29.86 "HgN/A
9:30 am45 °FScattered clouds.8 mph61%29.86 "HgN/A
8:30 am43 °FScattered clouds.6 mph71%29.83 "HgN/A
8:00 am41 °FScattered clouds.6 mph76%29.83 "HgN/A
7:30 am39 °FScattered clouds.3 mph81%29.80 "Hg6 mi
7:00 am39 °FPassing clouds.6 mph81%29.80 "Hg6 mi
Weather by CustomWeather, © 2017

See weather overviewHow to use our weather pages